RANDEV

Satellite information

Favourite Embed

Satellite Type and Status

PAYLOADIN ORBIT

Key statistics

Satellite RANDEV at a glance.

Uptime

1174

Days in orbit

Revolutions

≈ 14.6

Per day

Orbit

SSO

Sun Synchronous Orbit

Inclination

98.2

Latest

Satellite identification and parameters

Extended collection of information and parameters for RANDEV.

Object identification

Identified? True

Debris? False

Object name: RANDEV

International designator: 2022-065E

Object number (NORAD): 52898

Object ID (CCSDS): 52898

Country: SOUTH KOREA (SKOR)

Current information (Y/N): Y

RCS size: SMALL

Orbital parameters

Period: 98.437 minutes

Inclination: 98.1825 deg

SMA: 7062.071 km

Apoapsis: 689.482 km

Periapsis: 678.391 km

RAAN: 30.7458 deg

Eccentricy: 0.0007853

Argument of periapsis: 185.3505 deg

Mean anomaly: 174.7614 deg

Mean motion: 14.62866203 rev/day

Mean motion (dot): 0.00001877 rev/day2

B* drag term: 0.00037649554 1/REarth

Two-line elements (TLE)

Creation date: Sept. 7, 2025, 3:09 a.m.

Reference frame: TEME

Reference center: EARTH

Epoch: Sept. 6, 2025, 10 p.m. UTC

TLE line 0: 0 RANDEV

TLE line 1: 1 52898U 22065E 25249.91721619 .00001877 00000-0 37650-3 0 9992

TLE line 2: 2 52898 98.1825 30.7458 0007853 185.3505 174.7614 14.62866203169828

Live tracking on map

Real-time ground track for satellite RANDEV.

In-orbit conjunctions

There are no conjunctions computed for RANDEV, at the moment. Check back to stay up to date, as we update our databases every day.

Go to all conjunctions

Associated space launch

Second flight of the KSLV-II "Nuri" launch vehicle, carrying a dummy satellite Payload of 1500 kg to sun-synchronous orbit. The mission will in addition launch the performance verification satellite (PVSAT) and four Cubesats: - CubeSat (6U) STEP Cube Lab-II - CubeSat (3U) SNUGLITE-II - CubeSat (3U) MIMAN - CubeSat (3U) RANDEV

RANDEV was lifted into orbit during the mission ‘Nuri | Flight Test 2’, on board a Nuri space rocket.

The launch took place on June 21, 2022, 7 a.m. from LC-2.

For more information about the launch, click the button.

Launch to space Nuri | Flight Test 2
Nuri | Flight Test 2

Agency: N/A

Status: Launch Successful

Launch date: June 21, 2022, 7 a.m. UTC

Rocket: Nuri

Launch pad: LC-2

Location: Naro Space Center, South Korea

...

Latest news about this satellite

News about space launch
KARI reaches orbit on second test flight of domestic Nuri rocket

The Korean Aerospace Research Institute (KARI) has conducted its second launch of the Korea Space Launch Vehicle (KSLV)-II rocket, also known as Nuri. This was Nuri’s return to flight after nearly reaching orbit on its previous mission. The rocket lifted ...

News about space launch
South Korean rocket puts satellites in orbit for the first time in second flight

South Korea’s homegrown rocket KSLV-2 successfully put satellites into low Earth orbit for the first time in its second flight June 21.


Newsletter sign-up

Weekly statistics, charts and insights to help you stay on top of the space industry.